パンスターズ彗星

C/2017 K2 ( PanSTARRS )

English version
Home page
Updated on September 23, 2018

---------------------------------------------------------------------

・ プロフィール

発見日 2017年5月21日
発見光度 20.8等
発見者 Pan-STARRS 1 telescope (Haleakala)

・ 写真集

・ 軌道要素

Epoch 2022 Dec. 7.0 TT = JDT 2459920.5
T 2022 Dec. 19.65269 TT                                 MPCW
q   1.7969523            (2000.0)            P               Q
z  -0.0004799      Peri.  236.19623     +0.01818159     +0.04923379
 +/-0.0000034      Node    88.23528     -0.18096441     +0.98245310
e   1.0008623      Incl.   87.56309     -0.98332157     -0.17989425
From 882 observations 2013 May 12-2018 Sept. 19, mean residual 0".5.

・ 星図

・ 光度変化

        m1 = 1.0 + 5 logΔ + 10.0 log r

---------------------------------------------------------------------

軌道要素はM.P.E.C. 2018-S50に掲載されたものです。
星図はステラナビゲータ Ver.10 (アストロアーツ) で作成したものです。
光度グラフはComet for Windowsで作成したものです。

---------------------------------------------------------------------

Copyright(C) Seiichi Yoshida (comet@aerith.net). All rights reserved.